COSMOS 1275 DEB

Satellite information

Favourite Embed

Satellite Type and Status

DEBRISIN ORBIT

Key statistics

Satellite COSMOS 1275 DEB at a glance.

Uptime

16162

Days in orbit

Revolutions

≈ 14.3

Per day

Orbit

LEO

Low Earth Orbit

Inclination

82.9

Latest

Satellite identification and parameters

Extended collection of information and parameters for COSMOS 1275 DEB.

Object identification

Identified? True

Debris? True

Object name: COSMOS 1275 DEB

International designator: 1981-053AL

Object number (NORAD): 12692

Object ID (CCSDS): 12692

Country: COMMONWEALTH OF INDEPENDENT STATES (CIS)

Current information (Y/N): Y

RCS size: MEDIUM

Orbital parameters

Period: 100.527 minutes

Inclination: 82.8938 deg

SMA: 7161.672 km

Apoapsis: 832.694 km

Periapsis: 734.381 km

RAAN: 269.7917 deg

Eccentricy: 0.00686381

Argument of periapsis: 168.9278 deg

Mean anomaly: 191.344 deg

Mean motion: 14.32455373 rev/day

Mean motion (dot): 0.00003085 rev/day2

B* drag term: 0.0011042654 1/REarth

Two-line elements (TLE)

Creation date: Sept. 3, 2025, 2:21 a.m.

Reference frame: TEME

Reference center: EARTH

Epoch: Sept. 2, 2025, 7:19 p.m. UTC

TLE line 0: 0 COSMOS 1275 DEB

TLE line 1: 1 12692U 81053AL 25245.80496992 .00003085 00000-0 11043-2 0 9999

TLE line 2: 2 12692 82.8938 269.7917 0068638 168.9278 191.3440 14.32455373276850

Live tracking on map

Real-time ground track for satellite COSMOS 1275 DEB.

In-orbit conjunctions

A list of the most updated potential collisions computed for object COSMOS 1275 DEB.

Target Orbit TCA Probability of collision Miss distance Type
SL-3 R/B LEO 2025-01-23 22:35:04 0.0001334895 667.0 (m) ROCKET BODY
FENGYUN 1C DEB SSO 2024-12-14 18:32:29 0.0001551079 227.0 (m) DEBRIS

Associated space launch

Navigation satellite providing location information for the Tsiklon-B navigation system

COSMOS 1275 DEB was lifted into orbit during the mission ‘Kosmos-3M | Parus 27’, on board a Kosmos-3M space rocket.

The launch took place on June 4, 1981, 3:41 p.m. from 132/2.

For more information about the launch, click the button.

Launch to space Kosmos-3M | Parus 27
Kosmos-3M | Parus 27

Agency: N/A

Status: Launch Successful

Launch date: June 4, 1981, 3:41 p.m. UTC

Rocket: Kosmos-3M

Launch pad: 132/2

Location: Plesetsk Cosmodrome, Russian Federation

...

Latest news about this satellite

There are no fresh news available about this satellite. Check back as we update our databases every day.


Newsletter sign-up

Weekly statistics, charts and insights to help you stay on top of the space industry.